Find Starlink 30100

NORAD ID: 57623 Int'l Des: 2023-119 Owner: SPXS Country: US Constellation: starlink operational
LEOCIRCULAR

現在のビュー

3D地球を読み込み中...

About Starlink 30100

Starlink 30100 (NORAD 57623) is a starlink constellation satellite (v2 mini) launched Aug 11, 2023 by SPXS of US. It operates in LEO, CIRCULAR orbit with a mass of 730.00 kg.

次回通過

Passes for default location (London). Set your location on the main map for personalized predictions.

高度履歴

Loading altitude history...

軌道要素

1 57623U 23119X 26248.42109199 .00001872 00000-0 77524-4 0 9993
2 57623 43.0037 146.5818 0001052 280.7943 79.2791 15.27589001170579
Epoch: Sep 5, 2026 • Age: 11 hours

現在のステータス

高度 483.6 km
遠地点 / 近地点 N/A
速度 7.63 km/s
衛星直下点 -6.68°S, 163.87°W
打ち上げ日 Aug 11, 2023
運用期間 3 years
タイプ internet

技術仕様

分類 Payload
質量 730.00 kg
乾燥質量 700.00 kg
総質量 730.00 kg
長さ 0.30 m
直径 4.10 m
スパン 29.00 m
形状 Box + pan
製造者 SPXS
バスタイプ Starlink V2M
フェーズステータス In Orbit
所有者/国 SPXS/US

Most Searched